Brooksville, FL

4:44 PM EDT on August 19, 2017 (GMT -0400)
Hernando County

Weather History for KBKV - March, 2014

Change the Weather History Date:

Saturday, March 1, 2014

  Actual Average Record
Temperature  
Mean Temperature 57 °F -  
Max Temperature 75 °F 73 °F 86 °F (2007)
Min Temperature 39 °F 49 °F 37 °F (1999)
Degree Days  
Heating Degree Days 8    
Growing Degree Days 7 (Base 50)    
Moisture  
Dew Point 45 °F    
Average Humidity 71    
Maximum Humidity 93    
Minimum Humidity 29    
Precipitation  
Precipitation 0.00 in - - ()
Sea Level Pressure  
Sea Level Pressure 30.18 in    
Wind  
Wind Speed 2 mph (NNW)    
Max Wind Speed 9 mph    
Max Gust Speed -    
Visibility 10 miles    
Events Rain    
Averages and records for this station are not official NWS values.
T = Trace of Precipitation, MM = Missing Value Source: NWS Daily Summary

Daily Weather History Graph

Daily Weather History Graph

Search for Another Location

Airport or City:

Trip Planner

Search our weather history database for the weather conditions in past years. The results will help you decide how hot, cold, wet, or windy it might be!

Date:

Astronomy

Mar. 01, 2014 Rise Set
Actual Time 6:54 AM EST 6:29 PM EST
Civil Twilight 6:31 AM EST 6:53 PM EST
Nautical Twilight 6:03 AM EST 7:20 PM EST
Astronomical Twilight 5:36 AM EST 7:48 PM EST
Moon 6:52 AM EST (3/1) 7:08 PM EST (3/1)
Length of Visible Light 12h 22m
Length of Day
11h 35m
New Moon, 0% of the Moon is Illuminated
Mar 1
New Moon
Mar 8
First Quarter
Mar 16
Full
Mar 23
Last Quarter
Mar 30
New

Hourly Weather History & Observations

Time (EST) Temp. Windchill Dew Point Humidity Pressure Visibility Wind Dir Wind Speed Gust Speed Precip Events Conditions
12:53 AM 44.1 °F 42.5 °F 41.0 °F 89% 30.15 in 10.0 mi NNE 3.5 mph - N/A   Clear
1:53 AM 42.1 °F - 39.9 °F 92% 30.14 in 10.0 mi Calm Calm - N/A   Clear
2:53 AM 39.9 °F - 37.9 °F 93% 30.12 in 10.0 mi Calm Calm - N/A   Clear
3:53 AM 42.1 °F - 39.9 °F 92% 30.11 in 10.0 mi Calm Calm - N/A   Clear
4:53 AM 43.0 °F - 41.0 °F 93% 30.11 in 10.0 mi Calm Calm - N/A   Clear
5:53 AM 42.1 °F - 39.9 °F 92% 30.13 in 9.0 mi Calm Calm - N/A   Clear
6:53 AM 41.0 °F 39.0 °F 39.0 °F 93% 30.16 in 9.0 mi WNW 3.5 mph - N/A   Clear
7:53 AM 48.0 °F - 46.0 °F 93% 30.20 in 8.0 mi Calm Calm - N/A   Clear
8:53 AM 57.0 °F - 52.0 °F 83% 30.23 in 10.0 mi NE 4.6 mph - N/A   Clear
9:53 AM 62.1 °F - 54.0 °F 75% 30.25 in 10.0 mi East 4.6 mph - N/A   Clear
10:53 AM 68.0 °F - 46.9 °F 47% 30.26 in 10.0 mi Calm Calm - N/A   Clear
11:53 AM 71.1 °F - 48.0 °F 44% 30.24 in 10.0 mi North - - 0.00 in   Clear
12:53 PM 71.1 °F - 45.0 °F 39% 30.21 in 10.0 mi North - - N/A   Clear
1:53 PM 75.0 °F - 41.0 °F 29% 30.18 in 10.0 mi North 8.1 mph - N/A   Clear
2:53 PM 73.0 °F - 39.9 °F 30% 30.16 in 10.0 mi Variable 3.5 mph - N/A   Clear
3:53 PM 73.0 °F - 48.0 °F 41% 30.15 in 10.0 mi WNW 9.2 mph - N/A   Clear
4:53 PM 73.9 °F - 41.0 °F 30% 30.15 in 10.0 mi Calm Calm - N/A   Clear
5:53 PM 68.0 °F - 51.1 °F 55% 30.16 in 10.0 mi NW 8.1 mph - N/A   Clear
6:53 PM 63.0 °F - 51.1 °F 65% 30.17 in 10.0 mi NNW 5.8 mph - N/A   Clear
7:53 PM 57.0 °F - 50.0 °F 77% 30.18 in 10.0 mi Calm Calm - N/A   Clear
8:53 PM 53.1 °F - 48.9 °F 86% 30.20 in 10.0 mi Calm Calm - 0.00 in   Clear
9:53 PM 52.0 °F - 48.9 °F 89% 30.20 in 10.0 mi Calm Calm - 0.00 in Rain Light Rain
10:53 PM 51.1 °F - 46.9 °F 86% 30.21 in 10.0 mi Calm Calm - 0.00 in   Clear
11:53 PM 48.9 °F - 46.0 °F 90% 30.21 in 10.0 mi Calm Calm - N/A   Clear